72D/Denning-Fujikawa (1996)

Japanese version
Home page
Updated on September 12, 2009

---------------------------------------------------------------------

* Profile

* Orbital Elements

Epoch 1996 June 6.0 TT = JDT 2450240.5  
T 1996 May 29.77633 TT                                  Muraoka 
q   0.7901853            (2000.0)            P               Q
n   0.10912922     Peri.  337.57579     +0.96757798     -0.23438577
a   4.3368595      Node    36.38922     +0.24905163     +0.82339377
e   0.8177978      Incl.    9.12711     +0.04202554     +0.51680365
P   9.03
>From 28 observations 1881-1978, mean residual 2".24.  Nongravitational
   parameters A1 = -0.01 +/- 0.03, A2 = +0.0240 +/- 0.0005.

* Finding Charts

* 1996 Mar. 18 - 1996 June 16
* 1996 June 6 - 1996 Dec. 3

* Magnitudes Graph

        m1 = 15.5 + 5 log d + 25.0 log r

---------------------------------------------------------------------

The orbital elements are calculated by Kenji Muraoka.
The charts are made with StellaNavigator Ver.2.0 for Windows (AstroArts / ASCII).
The magnitudes graphs are made with Comet for Windows.

---------------------------------------------------------------------

Copyright(C) Seiichi Yoshida (comet@aerith.net). All rights reserved.